Year,Month,Day,Hour,Minute,Value (Times are PST for barometer in hPa)
2016,10,14,00,00,978.02
2016,10,14,00,01,978.02
2016,10,14,00,02,977.82
2016,10,14,00,03,977.79
2016,10,14,00,04,977.72
2016,10,14,00,05,977.75
2016,10,14,00,06,977.72
2016,10,14,00,07,977.62
2016,10,14,00,08,977.72
2016,10,14,00,09,977.65
2016,10,14,00,10,977.65
2016,10,14,00,11,977.68
2016,10,14,00,12,977.55
2016,10,14,00,13,977.52
2016,10,14,00,14,977.55
2016,10,14,00,15,977.68
2016,10,14,00,16,977.52
2016,10,14,00,17,977.89
2016,10,14,00,18,977.85
2016,10,14,00,19,977.89
2016,10,14,00,20,977.82
2016,10,14,00,21,977.68
2016,10,14,00,22,977.68
2016,10,14,00,23,977.58
2016,10,14,00,24,977.58
2016,10,14,00,25,977.82
2016,10,14,00,26,977.75
2016,10,14,00,27,977.62
2016,10,14,00,28,977.79
2016,10,14,00,29,977.75
2016,10,14,00,30,977.72
2016,10,14,00,31,977.75
2016,10,14,00,32,977.18
2016,10,14,00,33,977.48
2016,10,14,00,34,977.45
2016,10,14,00,35,977.75
2016,10,14,00,36,977.41
2016,10,14,00,37,977.24
2016,10,14,00,38,977.72
2016,10,14,00,39,977.72
2016,10,14,00,40,977.48
2016,10,14,00,41,977.62
2016,10,14,00,42,977.52
2016,10,14,00,43,977.65
2016,10,14,00,44,977.75
2016,10,14,00,45,977.62
2016,10,14,00,46,977.45
2016,10,14,00,47,977.65
2016,10,14,00,48,977.48
2016,10,14,00,49,977.65
2016,10,14,00,50,977.55
2016,10,14,00,51,977.58
2016,10,14,00,52,977.45
2016,10,14,00,53,977.65
2016,10,14,00,54,977.72
2016,10,14,00,55,977.68
2016,10,14,00,56,977.45
2016,10,14,00,57,977.45
2016,10,14,00,58,977.55
2016,10,14,00,59,977.48
2016,10,14,01,00,977.48
2016,10,14,01,01,977.35
2016,10,14,01,02,977.62
2016,10,14,01,03,977.48
2016,10,14,01,04,977.31
2016,10,14,01,05,977.28
2016,10,14,01,06,977.01
2016,10,14,01,07,977.31
2016,10,14,01,08,977.24
2016,10,14,01,09,977.41
2016,10,14,01,10,977.31
2016,10,14,01,11,977.18
2016,10,14,01,12,977.14
2016,10,14,01,13,977.21
2016,10,14,01,14,977.45
2016,10,14,01,15,977.55
2016,10,14,01,16,977.38
2016,10,14,01,17,977.45
2016,10,14,01,18,977.52
2016,10,14,01,19,977.62
2016,10,14,01,20,977.52
2016,10,14,01,21,977.28
2016,10,14,01,22,977.58
2016,10,14,01,23,977.62
2016,10,14,01,24,977.79
2016,10,14,01,25,977.92
2016,10,14,01,26,977.72
2016,10,14,01,27,977.75
2016,10,14,01,28,978.23
2016,10,14,01,29,978.12
2016,10,14,01,30,977.89
2016,10,14,01,31,978.09
2016,10,14,01,32,978.29
2016,10,14,01,33,978.16
2016,10,14,01,34,978.02
2016,10,14,01,35,978.23
2016,10,14,01,36,978.16
2016,10,14,01,37,978.19
2016,10,14,01,38,978.29
2016,10,14,01,39,978.43
2016,10,14,01,40,978.36
2016,10,14,01,41,978.53
2016,10,14,01,42,978.56
2016,10,14,01,43,978.40
2016,10,14,01,44,978.67
2016,10,14,01,45,978.63
2016,10,14,01,46,978.56
2016,10,14,01,47,978.73
2016,10,14,01,48,979.04
2016,10,14,01,49,978.67
2016,10,14,01,50,978.84
2016,10,14,01,51,978.97
2016,10,14,01,52,978.97
2016,10,14,01,53,979.14
2016,10,14,01,54,979.17
2016,10,14,01,55,979.24
2016,10,14,01,56,979.17
2016,10,14,01,57,979.55
2016,10,14,01,58,979.38
2016,10,14,01,59,979.58
2016,10,14,02,00,979.48
2016,10,14,02,01,979.68
2016,10,14,02,02,979.78
2016,10,14,02,03,979.65
2016,10,14,02,04,979.78
2016,10,14,02,05,979.89
2016,10,14,02,06,979.82
2016,10,14,02,07,979.72
2016,10,14,02,08,979.51
2016,10,14,02,09,979.85
2016,10,14,02,10,979.85
2016,10,14,02,11,979.95
2016,10,14,02,12,979.78
2016,10,14,02,13,979.68
2016,10,14,02,14,979.95
2016,10,14,02,15,979.95
2016,10,14,02,16,979.95
2016,10,14,02,17,980.05
2016,10,14,02,18,980.12
2016,10,14,02,19,979.95
2016,10,14,02,20,979.85
2016,10,14,02,21,979.68
2016,10,14,02,22,979.68
2016,10,14,02,23,979.58
2016,10,14,02,24,979.85
2016,10,14,02,25,979.61
2016,10,14,02,26,979.75
2016,10,14,02,27,979.72
2016,10,14,02,28,979.41
2016,10,14,02,29,979.82
2016,10,14,02,30,979.58
2016,10,14,02,31,979.72
2016,10,14,02,32,979.75
2016,10,14,02,33,980.02
2016,10,14,02,34,979.99
2016,10,14,02,35,980.09
2016,10,14,02,36,979.75
2016,10,14,02,37,980.02
2016,10,14,02,38,979.75
2016,10,14,02,39,979.68
2016,10,14,02,40,979.95
2016,10,14,02,41,979.68
2016,10,14,02,42,979.82
2016,10,14,02,43,979.68
2016,10,14,02,44,979.89
2016,10,14,02,45,979.72
2016,10,14,02,46,979.82
2016,10,14,02,47,979.95
2016,10,14,02,48,979.75
2016,10,14,02,49,979.89
2016,10,14,02,50,979.82
2016,10,14,02,51,979.85
2016,10,14,02,52,979.82
2016,10,14,02,53,979.99
2016,10,14,02,54,979.89
2016,10,14,02,55,980.09
2016,10,14,02,56,979.89
2016,10,14,02,57,980.05
2016,10,14,02,58,980.09
2016,10,14,02,59,980.16
2016,10,14,03,00,980.26
2016,10,14,03,01,980.16
2016,10,14,03,02,980.22
2016,10,14,03,03,980.19
2016,10,14,03,04,980.26
2016,10,14,03,05,980.36
2016,10,14,03,06,980.26
2016,10,14,03,07,980.39
2016,10,14,03,08,980.50
2016,10,14,03,09,980.33
2016,10,14,03,10,980.56
2016,10,14,03,11,980.53
2016,10,14,03,12,980.50
2016,10,14,03,13,980.53
2016,10,14,03,14,980.60
2016,10,14,03,15,980.66
2016,10,14,03,16,980.56
2016,10,14,03,17,980.60
2016,10,14,03,18,980.60
2016,10,14,03,19,980.73
2016,10,14,03,20,980.70
2016,10,14,03,21,980.66
2016,10,14,03,22,980.66
2016,10,14,03,23,980.66
2016,10,14,03,24,980.77
2016,10,14,03,25,980.66
2016,10,14,03,26,980.70
2016,10,14,03,27,980.66
2016,10,14,03,28,980.80
2016,10,14,03,29,980.70
2016,10,14,03,30,980.87
2016,10,14,03,31,980.83
2016,10,14,03,32,980.83
2016,10,14,03,33,980.94
2016,10,14,03,34,980.90
2016,10,14,03,35,980.94
2016,10,14,03,36,981.14
2016,10,14,03,37,981.07
2016,10,14,03,38,981.04
2016,10,14,03,39,981.17
2016,10,14,03,40,981.10
2016,10,14,03,41,980.87
2016,10,14,03,42,981.17
2016,10,14,03,43,981.00
2016,10,14,03,44,981.04
2016,10,14,03,45,981.27
2016,10,14,03,46,981.21
2016,10,14,03,47,981.14
2016,10,14,03,48,981.17
2016,10,14,03,49,981.31
2016,10,14,03,50,981.24
2016,10,14,03,51,981.27
2016,10,14,03,52,981.17
2016,10,14,03,53,981.21
2016,10,14,03,54,981.21
2016,10,14,03,55,981.21
2016,10,14,03,56,981.04
2016,10,14,03,57,981.21
2016,10,14,03,58,981.17
2016,10,14,03,59,981.17
2016,10,14,04,00,981.04
2016,10,14,04,01,981.07
2016,10,14,04,02,981.21
2016,10,14,04,03,981.07
2016,10,14,04,04,980.94
2016,10,14,04,05,980.80
2016,10,14,04,06,980.87
2016,10,14,04,07,980.87
2016,10,14,04,08,980.83
2016,10,14,04,09,980.80
2016,10,14,04,10,980.80
2016,10,14,04,11,980.77
2016,10,14,04,12,980.73
2016,10,14,04,13,980.70
2016,10,14,04,14,980.77
2016,10,14,04,15,980.63
2016,10,14,04,16,980.60
2016,10,14,04,17,980.66
2016,10,14,04,18,980.66
2016,10,14,04,19,980.73
2016,10,14,04,20,980.70
2016,10,14,04,21,980.70
2016,10,14,04,22,980.73
2016,10,14,04,23,980.77
2016,10,14,04,24,980.80
2016,10,14,04,25,980.63
2016,10,14,04,26,980.63
2016,10,14,04,27,980.63
2016,10,14,04,28,980.50
2016,10,14,04,29,980.60
2016,10,14,04,30,980.83
2016,10,14,04,31,980.77
2016,10,14,04,32,980.73
2016,10,14,04,33,980.87
2016,10,14,04,34,980.90
2016,10,14,04,35,980.90
2016,10,14,04,36,980.94
2016,10,14,04,37,980.87
2016,10,14,04,38,980.90
2016,10,14,04,39,980.90
2016,10,14,04,40,980.90
2016,10,14,04,41,981.04
2016,10,14,04,42,981.10
2016,10,14,04,43,981.10
2016,10,14,04,44,981.07
2016,10,14,04,45,981.14
2016,10,14,04,46,981.21
2016,10,14,04,47,981.24
2016,10,14,04,48,981.38
2016,10,14,04,49,981.41
2016,10,14,04,50,981.38
2016,10,14,04,51,981.41
2016,10,14,04,52,981.48
2016,10,14,04,53,981.48
2016,10,14,04,54,981.44
2016,10,14,04,55,981.65
2016,10,14,04,56,981.54
2016,10,14,04,57,981.68
2016,10,14,04,58,981.58
2016,10,14,04,59,981.61
2016,10,14,05,00,981.54
2016,10,14,05,01,981.48
2016,10,14,05,02,981.61
2016,10,14,05,03,981.78
2016,10,14,05,04,981.85
2016,10,14,05,05,981.85
2016,10,14,05,06,981.95
2016,10,14,05,07,981.99
2016,10,14,05,08,981.82
2016,10,14,05,09,981.85
2016,10,14,05,10,981.92
2016,10,14,05,11,981.82
2016,10,14,05,12,981.82
2016,10,14,05,13,981.68
2016,10,14,05,14,981.58
2016,10,14,05,15,981.58
2016,10,14,05,16,981.51
2016,10,14,05,17,981.41
2016,10,14,05,18,981.48
2016,10,14,05,19,981.51
2016,10,14,05,20,981.51
2016,10,14,05,21,981.68
2016,10,14,05,22,981.65
2016,10,14,05,23,981.75
2016,10,14,05,24,981.75
2016,10,14,05,25,981.75
2016,10,14,05,26,981.78
2016,10,14,05,27,981.75
2016,10,14,05,28,981.82
2016,10,14,05,29,981.82
2016,10,14,05,30,981.82
2016,10,14,05,31,981.75
2016,10,14,05,32,981.65
2016,10,14,05,33,981.58
2016,10,14,05,34,981.58
2016,10,14,05,35,981.61
2016,10,14,05,36,981.51
2016,10,14,05,37,981.54
2016,10,14,05,38,981.58
2016,10,14,05,39,981.61
2016,10,14,05,40,981.58
2016,10,14,05,41,981.48
2016,10,14,05,42,981.58
2016,10,14,05,43,981.51
2016,10,14,05,44,981.44
2016,10,14,05,45,981.44
2016,10,14,05,46,981.31
2016,10,14,05,47,981.31
2016,10,14,05,48,981.21
2016,10,14,05,49,981.21
2016,10,14,05,50,981.14
2016,10,14,05,51,981.07
2016,10,14,05,52,981.04
2016,10,14,05,53,981.00
2016,10,14,05,54,981.00
2016,10,14,05,55,981.04
2016,10,14,05,56,980.90
2016,10,14,05,57,980.87
2016,10,14,05,58,980.90
2016,10,14,05,59,980.90
2016,10,14,06,00,981.00
2016,10,14,06,01,980.97
2016,10,14,06,02,981.04
2016,10,14,06,03,981.00
2016,10,14,06,04,981.07
2016,10,14,06,05,981.27
2016,10,14,06,06,981.41
2016,10,14,06,07,981.38
2016,10,14,06,08,981.38
2016,10,14,06,09,981.21
2016,10,14,06,10,981.21
2016,10,14,06,11,981.10
2016,10,14,06,12,981.00
2016,10,14,06,13,981.00
2016,10,14,06,14,980.94
2016,10,14,06,15,980.90
2016,10,14,06,16,980.90
2016,10,14,06,17,980.90
2016,10,14,06,18,980.90
2016,10,14,06,19,980.83
2016,10,14,06,20,980.87
2016,10,14,06,21,980.90
2016,10,14,06,22,980.87
2016,10,14,06,23,980.90
2016,10,14,06,24,980.87
2016,10,14,06,25,980.83
2016,10,14,06,26,980.83
2016,10,14,06,27,980.80
2016,10,14,06,28,980.80
2016,10,14,06,29,980.83
2016,10,14,06,30,980.80
2016,10,14,06,31,980.73
2016,10,14,06,32,980.70
2016,10,14,06,33,980.66
2016,10,14,06,34,980.63
2016,10,14,06,35,980.63
2016,10,14,06,36,980.63
2016,10,14,06,37,980.70
2016,10,14,06,38,980.80
2016,10,14,06,39,980.83
2016,10,14,06,40,980.77
2016,10,14,06,41,980.77
2016,10,14,06,42,980.80
2016,10,14,06,43,980.70
2016,10,14,06,44,980.70
2016,10,14,06,45,980.73
2016,10,14,06,46,980.87
2016,10,14,06,47,980.87
2016,10,14,06,48,980.90
2016,10,14,06,49,980.94
2016,10,14,06,50,980.94
2016,10,14,06,51,980.94
2016,10,14,06,52,980.94
2016,10,14,06,53,981.00
2016,10,14,06,54,980.90
2016,10,14,06,55,980.87
2016,10,14,06,56,980.87
2016,10,14,06,57,980.77
2016,10,14,06,58,980.70
2016,10,14,06,59,980.87
2016,10,14,07,00,980.94
2016,10,14,07,01,981.07
2016,10,14,07,02,981.04
2016,10,14,07,03,981.04
2016,10,14,07,04,981.10
2016,10,14,07,05,981.10
2016,10,14,07,06,981.17
2016,10,14,07,07,981.14
2016,10,14,07,08,981.04
2016,10,14,07,09,980.97
2016,10,14,07,10,980.97
2016,10,14,07,11,980.87
2016,10,14,07,12,980.80
2016,10,14,07,13,980.83
2016,10,14,07,14,980.80
2016,10,14,07,15,980.73
2016,10,14,07,16,980.66
2016,10,14,07,17,980.56
2016,10,14,07,18,980.56
2016,10,14,07,19,980.56
2016,10,14,07,20,980.63
2016,10,14,07,21,980.56
2016,10,14,07,22,980.56
2016,10,14,07,23,980.50
2016,10,14,07,24,980.43
2016,10,14,07,25,980.36
2016,10,14,07,26,980.39
2016,10,14,07,27,980.36
2016,10,14,07,28,980.39
2016,10,14,07,29,980.33
2016,10,14,07,30,980.36
2016,10,14,07,31,980.33
2016,10,14,07,32,980.33
2016,10,14,07,33,980.43
2016,10,14,07,34,980.56
2016,10,14,07,35,980.60
2016,10,14,07,36,980.73
2016,10,14,07,37,980.77
2016,10,14,07,38,980.83
2016,10,14,07,39,980.77
2016,10,14,07,40,980.60
2016,10,14,07,41,980.46
2016,10,14,07,42,980.53
2016,10,14,07,43,980.56
2016,10,14,07,44,980.50
2016,10,14,07,45,980.56
2016,10,14,07,46,980.39
2016,10,14,07,47,980.50
2016,10,14,07,48,980.63
2016,10,14,07,49,980.70
2016,10,14,07,50,980.77
2016,10,14,07,51,980.77
2016,10,14,07,52,980.70
2016,10,14,07,53,980.73
2016,10,14,07,54,980.60
2016,10,14,07,55,980.66
2016,10,14,07,56,980.77
2016,10,14,07,57,980.87
2016,10,14,07,58,980.87
2016,10,14,07,59,980.87
2016,10,14,08,00,980.80
2016,10,14,08,01,980.77
2016,10,14,08,02,980.80
2016,10,14,08,03,980.83
2016,10,14,08,04,980.77
2016,10,14,08,05,980.73
2016,10,14,08,06,980.70
2016,10,14,08,07,980.60
2016,10,14,08,08,980.60
2016,10,14,08,09,980.53
2016,10,14,08,10,980.53
2016,10,14,08,11,980.60
2016,10,14,08,12,980.63
2016,10,14,08,13,980.70
2016,10,14,08,14,980.73
2016,10,14,08,15,980.70
2016,10,14,08,16,980.70
2016,10,14,08,17,980.66
2016,10,14,08,18,980.66
2016,10,14,08,19,980.70
2016,10,14,08,20,980.66
2016,10,14,08,21,980.66
2016,10,14,08,22,980.70
2016,10,14,08,23,980.70
2016,10,14,08,24,980.73
2016,10,14,08,25,980.77
2016,10,14,08,26,980.77
2016,10,14,08,27,980.73
2016,10,14,08,28,980.66
2016,10,14,08,29,980.53
2016,10,14,08,30,980.50
2016,10,14,08,31,980.43
2016,10,14,08,32,980.46
2016,10,14,08,33,980.46
2016,10,14,08,34,980.33
2016,10,14,08,35,980.33
2016,10,14,08,36,980.26
2016,10,14,08,37,980.26
2016,10,14,08,38,980.19
2016,10,14,08,39,980.26
2016,10,14,08,40,980.36
2016,10,14,08,41,980.33
2016,10,14,08,42,980.43
2016,10,14,08,43,980.36
2016,10,14,08,44,980.39
2016,10,14,08,45,980.50
2016,10,14,08,46,980.46
2016,10,14,08,47,980.53
2016,10,14,08,48,980.56
2016,10,14,08,49,980.53
2016,10,14,08,50,980.50
2016,10,14,08,51,980.36
2016,10,14,08,52,980.33
2016,10,14,08,53,980.29
2016,10,14,08,54,980.29
2016,10,14,08,55,980.26
2016,10,14,08,56,980.26
2016,10,14,08,57,980.19
2016,10,14,08,58,980.19
2016,10,14,08,59,980.09
2016,10,14,09,00,980.09
2016,10,14,09,01,980.09
2016,10,14,09,02,980.09
2016,10,14,09,03,980.16
2016,10,14,09,04,980.19
2016,10,14,09,05,980.16
2016,10,14,09,06,980.26
2016,10,14,09,07,980.19
2016,10,14,09,08,980.26
2016,10,14,09,09,980.26
2016,10,14,09,10,980.22
2016,10,14,09,11,980.26
2016,10,14,09,12,980.26
2016,10,14,09,13,980.26
2016,10,14,09,14,980.22
2016,10,14,09,15,980.19
2016,10,14,09,16,980.26
2016,10,14,09,17,980.26
2016,10,14,09,18,980.22
2016,10,14,09,19,980.22
2016,10,14,09,20,980.19
2016,10,14,09,21,980.16
2016,10,14,09,22,980.09
2016,10,14,09,23,980.02
2016,10,14,09,24,980.05
2016,10,14,09,25,980.16
2016,10,14,09,26,980.09
2016,10,14,09,27,980.16
2016,10,14,09,28,980.16
2016,10,14,09,29,980.19
2016,10,14,09,30,980.19
2016,10,14,09,31,980.19
2016,10,14,09,32,980.19
2016,10,14,09,33,980.22
2016,10,14,09,34,980.26
2016,10,14,09,35,980.26
2016,10,14,09,36,980.19
2016,10,14,09,37,980.19
2016,10,14,09,38,980.16
2016,10,14,09,39,980.16
2016,10,14,09,40,980.09
2016,10,14,09,41,980.19
2016,10,14,09,42,980.16
2016,10,14,09,43,980.02
2016,10,14,09,44,979.89
2016,10,14,09,45,979.85
2016,10,14,09,46,979.85
2016,10,14,09,47,979.82
2016,10,14,09,48,979.75
2016,10,14,09,49,979.75
2016,10,14,09,50,979.78
2016,10,14,09,51,979.78
2016,10,14,09,52,979.72
2016,10,14,09,53,979.72
2016,10,14,09,54,979.68
2016,10,14,09,55,979.72
2016,10,14,09,56,979.68
2016,10,14,09,57,979.65
2016,10,14,09,58,979.65
2016,10,14,09,59,979.61
2016,10,14,10,00,979.58
2016,10,14,10,01,979.51
2016,10,14,10,02,979.55
2016,10,14,10,03,979.55
2016,10,14,10,04,979.55
2016,10,14,10,05,979.55
2016,10,14,10,06,979.51
2016,10,14,10,07,979.55
2016,10,14,10,08,979.51
2016,10,14,10,09,979.51
2016,10,14,10,10,979.51
2016,10,14,10,11,979.48
2016,10,14,10,12,979.51
2016,10,14,10,13,979.51
2016,10,14,10,14,979.48
2016,10,14,10,15,979.48
2016,10,14,10,16,979.45
2016,10,14,10,17,979.41
2016,10,14,10,18,979.38
2016,10,14,10,19,979.45
2016,10,14,10,20,979.45
2016,10,14,10,21,979.48
2016,10,14,10,22,979.45
2016,10,14,10,23,979.41
2016,10,14,10,24,979.48
2016,10,14,10,25,979.48
2016,10,14,10,26,979.41
2016,10,14,10,27,979.45
2016,10,14,10,28,979.45
2016,10,14,10,29,979.55
2016,10,14,10,30,979.65
2016,10,14,10,31,979.61
2016,10,14,10,32,979.61
2016,10,14,10,33,979.65
2016,10,14,10,34,979.58
2016,10,14,10,35,979.61
2016,10,14,10,36,979.65
2016,10,14,10,37,979.68
2016,10,14,10,38,979.68
2016,10,14,10,39,979.65
2016,10,14,10,40,979.65
2016,10,14,10,41,979.68
2016,10,14,10,42,979.72
2016,10,14,10,43,979.68
2016,10,14,10,44,979.68
2016,10,14,10,45,979.58
2016,10,14,10,46,979.55
2016,10,14,10,47,979.51
2016,10,14,10,48,979.45
2016,10,14,10,49,979.41
2016,10,14,10,50,979.38
2016,10,14,10,51,979.38
2016,10,14,10,52,979.34
2016,10,14,10,53,979.34
2016,10,14,10,54,979.24
2016,10,14,10,55,979.14
2016,10,14,10,56,979.11
2016,10,14,10,57,979.07
2016,10,14,10,58,979.14
2016,10,14,10,59,979.11
2016,10,14,11,00,979.11
2016,10,14,11,01,979.14
2016,10,14,11,02,979.11
2016,10,14,11,03,979.11
2016,10,14,11,04,979.11
2016,10,14,11,05,979.07
2016,10,14,11,06,979.04
2016,10,14,11,07,979.04
2016,10,14,11,08,979.04
2016,10,14,11,09,978.97
2016,10,14,11,10,978.97
2016,10,14,11,11,978.97
2016,10,14,11,12,978.94
2016,10,14,11,13,978.90
2016,10,14,11,14,978.87
2016,10,14,11,15,978.87
2016,10,14,11,16,978.80
2016,10,14,11,17,978.84
2016,10,14,11,18,978.84
2016,10,14,11,19,978.77
2016,10,14,11,20,978.80
2016,10,14,11,21,978.77
2016,10,14,11,22,978.80
2016,10,14,11,23,978.80
2016,10,14,11,24,978.77
2016,10,14,11,25,978.77
2016,10,14,11,26,978.73
2016,10,14,11,27,978.77
2016,10,14,11,28,978.70
2016,10,14,11,29,978.56
2016,10,14,11,30,978.60
2016,10,14,11,31,978.53
2016,10,14,11,32,978.56
2016,10,14,11,33,978.53
2016,10,14,11,34,978.53
2016,10,14,11,35,978.53
2016,10,14,11,36,978.43
2016,10,14,11,37,978.33
2016,10,14,11,38,978.29
2016,10,14,11,39,978.29
2016,10,14,11,40,978.23
2016,10,14,11,41,978.19
2016,10,14,11,42,978.12
2016,10,14,11,43,978.12
2016,10,14,11,44,978.12
2016,10,14,11,45,978.09
2016,10,14,11,46,978.06
2016,10,14,11,47,978.06
2016,10,14,11,48,978.06
2016,10,14,11,49,978.06
2016,10,14,11,50,978.06
2016,10,14,11,51,978.06
2016,10,14,11,52,978.02
2016,10,14,11,53,978.06
2016,10,14,11,54,978.02
2016,10,14,11,55,977.96
2016,10,14,11,56,977.96
2016,10,14,11,57,977.89
2016,10,14,11,59,977.82
2016,10,14,12,00,977.75
2016,10,14,12,01,977.75
2016,10,14,12,02,977.75
2016,10,14,12,03,977.68
2016,10,14,12,04,977.62
2016,10,14,12,05,977.55
2016,10,14,12,06,977.52
2016,10,14,12,07,977.55
2016,10,14,12,08,977.52
2016,10,14,12,09,977.55
2016,10,14,12,10,977.52
2016,10,14,12,11,977.55
2016,10,14,12,12,977.52
2016,10,14,12,13,977.41
2016,10,14,12,14,977.35
2016,10,14,12,15,977.31
2016,10,14,12,16,977.28
2016,10,14,12,17,977.28
2016,10,14,12,18,977.24
2016,10,14,12,19,977.24
2016,10,14,12,20,977.28
2016,10,14,12,21,977.28
2016,10,14,12,22,977.31
2016,10,14,12,23,977.41
2016,10,14,12,24,977.48
2016,10,14,12,25,977.45
2016,10,14,12,26,977.41
2016,10,14,12,27,977.41
2016,10,14,12,28,977.31
2016,10,14,12,29,977.21
2016,10,14,12,30,977.14
2016,10,14,12,31,977.18
2016,10,14,12,32,977.28
2016,10,14,12,33,977.24
2016,10,14,12,34,977.14
2016,10,14,12,35,977.21
2016,10,14,12,36,977.14
2016,10,14,12,37,977.14
2016,10,14,12,38,977.18
2016,10,14,12,39,977.18
2016,10,14,12,40,977.18
2016,10,14,12,41,977.18
2016,10,14,12,42,977.18
2016,10,14,12,43,977.21
2016,10,14,12,44,977.21
2016,10,14,12,45,977.11
2016,10,14,12,46,977.11
2016,10,14,12,47,977.21
2016,10,14,12,48,977.24
2016,10,14,12,49,977.31
2016,10,14,12,50,977.28
2016,10,14,12,51,977.21
2016,10,14,12,52,977.14
2016,10,14,12,53,977.07
2016,10,14,12,54,977.07
2016,10,14,12,55,977.07
2016,10,14,12,56,977.01
2016,10,14,12,57,976.97
2016,10,14,12,58,976.91
2016,10,14,12,59,976.91
2016,10,14,13,00,976.80
2016,10,14,13,01,976.80
2016,10,14,13,02,976.74
2016,10,14,13,03,976.77
2016,10,14,13,04,976.80
2016,10,14,13,05,976.77
2016,10,14,13,06,976.70
2016,10,14,13,07,976.63
2016,10,14,13,08,976.67
2016,10,14,13,09,976.67
2016,10,14,13,10,976.57
2016,10,14,13,11,976.63
2016,10,14,13,12,976.60
2016,10,14,13,13,976.60
2016,10,14,13,14,976.60
2016,10,14,13,15,976.57
2016,10,14,13,16,976.60
2016,10,14,13,17,976.63
2016,10,14,13,18,976.67
2016,10,14,13,19,976.67
2016,10,14,13,20,976.53
2016,10,14,13,21,976.50
2016,10,14,13,22,976.47
2016,10,14,13,23,976.47
2016,10,14,13,24,976.40
2016,10,14,13,25,976.47
2016,10,14,13,26,976.36
2016,10,14,13,27,976.33
2016,10,14,13,28,976.30
2016,10,14,13,29,976.30
2016,10,14,13,30,976.23
2016,10,14,13,31,976.26
2016,10,14,13,32,976.23
2016,10,14,13,33,976.26
2016,10,14,13,34,976.33
2016,10,14,13,35,976.33
2016,10,14,13,36,976.30
2016,10,14,13,37,976.23
2016,10,14,13,38,976.19
2016,10,14,13,39,976.26
2016,10,14,13,40,976.26
2016,10,14,13,41,976.26
2016,10,14,13,42,976.19
2016,10,14,13,43,976.16
2016,10,14,13,44,976.19
2016,10,14,13,45,976.23
2016,10,14,13,46,976.16
2016,10,14,13,47,976.16
2016,10,14,13,48,976.23
2016,10,14,13,49,976.33
2016,10,14,13,50,976.50
2016,10,14,13,51,976.70
2016,10,14,13,52,977.01
2016,10,14,13,53,977.31
2016,10,14,13,54,977.52
2016,10,14,13,55,977.62
2016,10,14,13,56,977.62
2016,10,14,13,57,977.38
2016,10,14,13,58,977.38
2016,10,14,13,59,977.48
2016,10,14,14,00,977.62
2016,10,14,14,01,977.72
2016,10,14,14,02,977.85
2016,10,14,14,03,977.92
2016,10,14,14,04,977.99
2016,10,14,14,05,978.09
2016,10,14,14,06,978.23
2016,10,14,14,07,978.29
2016,10,14,14,08,978.46
2016,10,14,14,09,978.53
2016,10,14,14,10,978.60
2016,10,14,14,11,978.63
2016,10,14,14,12,978.70
2016,10,14,14,13,978.73
2016,10,14,14,14,978.80
2016,10,14,14,15,978.80
2016,10,14,14,16,978.84
2016,10,14,14,17,978.94
2016,10,14,14,18,978.97
2016,10,14,14,19,978.97
2016,10,14,14,20,979.01
2016,10,14,14,21,979.04
2016,10,14,14,22,979.04
2016,10,14,14,23,979.11
2016,10,14,14,24,979.21
2016,10,14,14,25,979.24
2016,10,14,14,26,979.28
2016,10,14,14,27,979.31
2016,10,14,14,28,979.41
2016,10,14,14,29,979.41
2016,10,14,14,30,979.51
2016,10,14,14,31,979.58
2016,10,14,14,32,979.65
2016,10,14,14,33,979.78
2016,10,14,14,34,979.82
2016,10,14,14,35,979.92
2016,10,14,14,36,979.99
2016,10,14,14,37,980.09
2016,10,14,14,38,980.19
2016,10,14,14,39,980.33
2016,10,14,14,40,980.46
2016,10,14,14,41,980.53
2016,10,14,14,42,980.53
2016,10,14,14,43,980.60
2016,10,14,14,44,980.66
2016,10,14,14,45,980.70
2016,10,14,14,46,980.73
2016,10,14,14,47,980.77
2016,10,14,14,48,980.77
2016,10,14,14,49,980.83
2016,10,14,14,50,980.80
2016,10,14,14,51,980.87
2016,10,14,14,52,980.94
2016,10,14,14,53,980.97
2016,10,14,14,54,981.04
2016,10,14,14,55,981.07
2016,10,14,14,56,981.14
2016,10,14,14,57,981.24
2016,10,14,14,58,981.27
2016,10,14,14,59,981.31
2016,10,14,15,00,981.38
2016,10,14,15,01,981.41
2016,10,14,15,02,981.38
2016,10,14,15,03,981.44
2016,10,14,15,04,981.51
2016,10,14,15,05,981.58
2016,10,14,15,06,981.58
2016,10,14,15,07,981.61
2016,10,14,15,08,981.61
2016,10,14,15,09,981.68
2016,10,14,15,10,981.78
2016,10,14,15,11,981.75
2016,10,14,15,12,981.85
2016,10,14,15,13,981.88
2016,10,14,15,14,981.92
2016,10,14,15,15,981.99
2016,10,14,15,16,981.99
2016,10,14,15,17,982.05
2016,10,14,15,18,982.05
2016,10,14,15,19,982.05
2016,10,14,15,20,982.09
2016,10,14,15,21,982.12
2016,10,14,15,22,982.12
2016,10,14,15,23,982.22
2016,10,14,15,24,982.26
2016,10,14,15,25,982.26
2016,10,14,15,26,982.29
2016,10,14,15,27,982.29
2016,10,14,15,28,982.29
2016,10,14,15,29,982.32
2016,10,14,15,30,982.39
2016,10,14,15,31,982.49
2016,10,14,15,32,982.56
2016,10,14,15,33,982.53
2016,10,14,15,34,982.59
2016,10,14,15,35,982.59
2016,10,14,15,36,982.66
2016,10,14,15,37,982.66
2016,10,14,15,38,982.66
2016,10,14,15,39,982.70
2016,10,14,15,40,982.73
2016,10,14,15,41,982.76
2016,10,14,15,42,982.83
2016,10,14,15,43,982.80
2016,10,14,15,44,982.90
2016,10,14,15,45,982.97
2016,10,14,15,46,982.93
2016,10,14,15,47,983.00
2016,10,14,15,48,983.03
2016,10,14,15,49,983.14
2016,10,14,15,50,983.20
2016,10,14,15,51,983.24
2016,10,14,15,52,983.31
2016,10,14,15,53,983.37
2016,10,14,15,54,983.48
2016,10,14,15,55,983.41
2016,10,14,15,56,983.54
2016,10,14,15,57,983.64
2016,10,14,15,58,983.64
2016,10,14,15,59,983.58
2016,10,14,16,00,983.71
2016,10,14,16,01,983.68
2016,10,14,16,02,983.81
2016,10,14,16,03,983.85
2016,10,14,16,04,983.88
2016,10,14,16,05,983.98
2016,10,14,16,06,983.92
2016,10,14,16,07,984.08
2016,10,14,16,08,984.19
2016,10,14,16,09,984.25
2016,10,14,16,10,984.36
2016,10,14,16,11,984.42
2016,10,14,16,12,984.52
2016,10,14,16,13,984.56
2016,10,14,16,14,984.63
2016,10,14,16,15,984.66
2016,10,14,16,16,984.76
2016,10,14,16,17,984.73
2016,10,14,16,18,984.80
2016,10,14,16,19,984.83
2016,10,14,16,20,984.90
2016,10,14,16,21,985.03
2016,10,14,16,22,985.03
2016,10,14,16,23,985.13
2016,10,14,16,24,985.20
2016,10,14,16,25,985.34
2016,10,14,16,26,985.44
2016,10,14,16,27,985.41
2016,10,14,16,28,985.41
2016,10,14,16,29,985.51
2016,10,14,16,30,985.51
2016,10,14,16,31,985.61
2016,10,14,16,32,985.57
2016,10,14,16,33,985.71
2016,10,14,16,34,985.78
2016,10,14,16,35,985.81
2016,10,14,16,36,985.74
2016,10,14,16,37,985.78